RH
87 76 84 75 83 83 80 72 75 86 88 95 91 91 92 92 92 94 92 92 94 94 96 83 89 82 84 75 61 54 49 49 55 71 69 60 57 50 62 57 48 49 42 34 31 31 29
84 90 86 79 73 83 81 76 72 72 92 97 95 91 93 92 95 95 95 90 93 95 96 86 80 81 84 75 43 43 50 50 48 52 62 57 53 44 45 51 59 46 43 43 36 30 30
90 85 89 80 72 78 81 80 77 72 71 96 96 92 91 92 91 94 89 95 94 94 94 95 83 90 71 60 43 42 44 47 45 44 44 51 52 59 43 49 46 50 70 47 43 34 31
95 93 87 83 75 78 81 81 80 78 71 78 94 95 87 86 90 84 82 77 87 90 91 83 80 78 75 56 54 47 44 45 42 40 41 42 43 53 58 53 63 69 71 84 48 36 34
95 92 90 85 76 75 84 80 81 81 81 76 85 91 87 81 85 82 84 77 81 85 86 84 88 76 69 55 56 51 46 43 40 38 42 40 41 59 62 72 88 78 82 83 67 41 35
100 93 90 80 80 80 81 79 79 80 82 83 82 84 90 76 83 81 82 78 83 84 82 83 77 86 65 57 51 51 48 46 43 40 42 51 57 69 75 82 88 80 90 64 72 49 38
93 100 87 76 75 78 76 76 78 79 80 84 84 78 89 76 80 86 85 88 85 92 88 68 66 59 48 47 52 48 47 46 46 51 65 52 76 84 71 69 67 61 61 71 52 47 44
98 99 95 83 75 72 74 76 78 78 80 82 82 81 87 75 80 84 88 79 73 84 94 78 57 60 50 50 56 50 47 56 60 75 59 65 83 58 50 52 62 64 75 77 54 41 43
87 99 99 100 82 74 74 73 79 79 78 84 84 83 83 75 83 92 95 80 79 82 99 85 77 65 57 55 60 54 50 54 60 70 65 73 60 51 50 50 58 61 76 80 67 46 46
83 84 99 95 100 87 76 74 80 80 81 87 88 81 81 84 85 80 89 83 84 86 100 88 89 75 64 73 83 49 44 52 60 66 60 63 50 46 55 55 50 66 56 65 78 68 72
86 87 87 98 96 99 86 76 78 80 85 89 90 83 80 72 82 76 89 85 91 89 97 76 84 62 62 87 64 62 51 53 66 59 55 78 53 51 52 56 45 58 54 67 82 87 72
86 94 88 98 94 92 98 84 75 81 87 92 91 83 78 86 87 94 93 97 82 99 94 82 84 92 88 81 71 65 60 55 52 67 54 55 46 52 54 51 62 48 63 76 93 90 93
85 90 92 97 95 90 98 90 75 79 89 93 93 87 78 82 75 95 90 91 100 99 68 95 92 80 73 91 90 84 72 75 80 97 98 96 80 61 77 86 62 67 75 98 99 99 77
83 89 94 99 98 88 97 99 80 75 89 95 99 92 86 76 88 88 85 96 100 53 67 83 87 87 98 87 92 86 76 80 69 75 88 85 76 78 69 92 76 82 85 100 97 96 59
79 89 95 98 99 91 98 96 84 79 90 95 100 100 99 87 92 85 90 99 76 70 73 95 96 100 100 95 84 80 70 92 60 60 99 100 85 60 57 61 80 91 97 79 99 37 54
82 84 97 96 99 86 100 98 85 86 96 99 100 100 97 90 100 94 98 90 81 68 84 92 98 74 85 84 73 62 58 48 59 54 58 89 96 68 70 76 74 88 69 99 87 58 65
82 86 92 96 96 89 99 100 96 97 97 100 96 99 78 96 100 98 97 89 73 64 78 92 72 61 50 66 60 50 47 42 46 48 71 88 96 94 86 94 87 98 97 92 78 56 54
76 84 89 98 98 85 97 94 100 100 99 100 96 99 84 100 98 96 96 78 84 79 76 83 75 61 40 47 54 49 57 51 36 38 63 89 100 100 94 76 75 80 77 77 56 61 52
68 78 92 98 99 98 83 98 96 98 100 95 96 96 100 88 97 97 84 82 86 87 84 83 66 42 34 36 44 39 50 38 34 62 76 89 99 99 99 94 81 93 77 61 57 47 57
63 76 92 96 98 96 96 98 100 98 99 81 96 98 100 99 86 88 91 94 96 80 83 72 62 46 41 40 35 63 44 43 40 46 79 84 88 100 94 72 77 86 79 66 57 57 46
63 72 84 92 99 95 97 95 100 98 100 82 95 89 82 98 95 94 90 89 95 96 80 74 62 53 53 52 47 44 53 44 41 40 69 89 98 79 49 54 57 60 61 55 54 44 48
62 70 82 86 99 94 98 96 99 100 100 94 96 83 82 86 70 81 89 90 94 90 92 75 68 66 66 54 45 50 44 47 46 47 45 65 82 70 51 44 48 57 55 55 54 48 47
60 67 78 86 93 97 98 93 97 100 99 99 97 81 80 60 75 89 85 84 86 86 84 77 74 60 74 55 46 34 37 37 44 50 58 65 76 66 60 43 46 54 50 51 51 48 48
64 64 76 85 91 96 98 90 97 99 100 89 90 90 94 84 55 62 62 64 84 88 90 82 72 79 64 47 54 57 56 56 48 47 46 70 75 66 63 49 76 42 36 36 44 41 40
63 63 75 84 88 98 95 96 98 100 100 96 84 92 98 92 64 52 45 69 89 93 98 88 80 60 71 57 74 87 88 79 72 61 70 53 66 78 83 76 56 46 36 37 43 44 35
63 63 75 83 88 97 97 86 96 100 98 100 93 81 96 94 77 52 59 80 92 96 98 94 73 63 71 68 81 98 92 94 99 91 70 62 64 87 84 72 70 44 39 34 35 54 42
64 64 76 85 89 96 96 91 93 99 98 100 99 95 94 98 73 54 61 83 90 91 94 86 85 78 86 69 81 88 94 81 98 95 96 91 89 97 91 86 73 42 40 34 47 55 40
63 66 74 83 91 95 95 92 94 100 98 100 98 99 90 94 77 62 55 76 95 98 91 76 83 84 96 86 86 86 71 76 88 75 86 85 88 92 96 99 92 44 47 49 56 43 38
65 68 73 84 92 95 96 97 98 97 100 100 100 100 100 98 90 77 68 73 85 94 92 84 82 71 81 84 79 64 62 50 58 90 64 82 71 76 79 71 52 46 52 47 47 48 47
Wind_Speed
23 22 21 23 21 18 16 15 15 17 15 13 12 11 10 9 9 9 8 6 6 7 6 5 5 6 6 8 13 4 3 6 0 10 18 15 14 12 15 11 17 23 19 21 17 16 17
23 24 23 21 24 22 18 16 15 15 17 15 13 12 12 10 10 9 9 7 7 8 8 7 7 7 7 15 12 18 8 6 5 4 15 17 12 13 15 17 18 10 20 19 18 17 14
23 23 24 22 23 23 21 19 16 14 14 17 14 13 14 13 11 10 8 8 8 9 10 7 7 8 11 14 6 10 14 15 12 11 9 14 18 13 6 15 12 18 15 15 22 19 14
24 24 24 24 24 24 23 20 17 16 15 15 16 15 14 16 13 12 10 7 9 8 11 8 6 9 7 13 25 11 6 9 12 14 15 15 13 9 15 8 10 9 10 13 19 17 18
25 23 24 25 25 25 23 21 19 18 17 16 15 16 13 15 14 12 10 7 7 8 10 7 4 8 7 6 18 19 17 12 10 10 9 15 13 9 9 10 7 9 13 21 15 18 16
26 24 24 25 25 24 22 22 21 18 17 17 16 16 14 14 14 11 8 5 3 6 6 5 9 3 8 10 9 17 21 21 13 12 9 8 6 9 10 11 17 12 12 13 18 18 17
33 27 26 25 27 25 22 23 21 19 18 18 16 14 15 13 13 12 7 1 1 1 8 9 8 7 1 11 3 11 17 16 14 12 13 12 8 18 21 21 18 17 19 17 15 17 18
32 35 29 28 27 27 25 23 21 19 18 17 15 14 13 12 13 13 10 3 3 3 6 18 19 18 24 8 8 12 15 13 15 16 15 14 19 26 17 18 18 21 20 18 17 17 21
33 32 26 26 29 28 27 24 23 19 18 17 14 14 13 12 10 11 14 11 6 3 5 6 20 19 15 13 14 12 17 16 16 18 19 19 24 17 19 18 20 21 22 18 16 19 7
34 32 28 23 20 29 28 26 24 22 18 16 15 15 13 12 5 12 15 15 12 3 4 5 6 6 15 7 7 18 18 16 12 20 18 16 21 20 19 22 19 20 21 19 17 17 9
34 32 31 29 21 22 29 28 24 22 18 16 16 17 16 20 6 6 5 10 8 4 5 8 6 5 7 10 4 11 26 16 18 17 11 10 15 21 24 23 21 22 12 16 22 9 4
35 32 30 26 26 21 25 28 24 21 19 17 18 18 18 13 9 7 11 14 8 2 8 6 5 7 9 11 8 7 18 15 12 17 18 16 13 16 15 21 20 20 12 15 14 6 7
37 35 30 27 23 21 31 27 24 20 20 19 21 20 23 15 8 18 16 5 3 5 2 5 5 7 14 12 12 9 18 20 9 7 10 7 19 12 3 5 19 19 12 7 6 7 5
37 39 30 25 21 27 29 22 24 21 21 21 23 23 22 15 14 25 15 2 6 7 8 3 4 9 8 8 8 16 10 16 18 12 2 10 9 16 11 8 10 18 15 3 5 4 5
38 39 32 25 20 25 33 20 21 22 22 22 23 26 13 20 24 28 5 5 4 4 3 5 5 7 6 6 6 14 15 6 10 18 7 5 9 10 12 13 11 3 11 18 6 7 4
37 37 34 28 20 26 34 14 19 21 23 23 17 14 8 23 32 20 5 9 6 6 7 5 9 12 9 11 8 12 11 7 16 17 13 2 5 5 11 9 17 8 11 11 7 5 7
37 37 34 42 21 22 26 26 20 25 25 30 13 4 11 28 27 5 7 7 9 12 7 8 11 10 11 10 13 12 8 12 14 15 15 7 6 3 2 11 15 8 5 8 5 2 6
37 39 33 38 19 24 23 28 18 21 25 30 6 3 20 33 6 3 7 6 3 10 13 9 13 18 12 11 15 11 12 7 13 15 10 8 4 3 8 3 11 5 9 21 2 2 2
37 38 35 35 28 19 24 33 20 24 33 14 6 3 20 19 5 6 6 7 7 3 7 8 8 10 7 7 7 15 14 9 11 10 14 10 5 1 5 8 5 8 6 3 5 2 4
36 39 40 36 30 26 28 35 16 31 36 18 4 5 3 4 3 6 11 7 6 13 18 14 13 16 7 8 10 1 10 6 9 15 15 7 4 7 4 6 10 6 5 4 5 2 2
34 35 38 37 33 28 36 30 13 30 36 13 3 4 5 5 8 10 4 4 8 6 13 14 6 12 9 7 8 10 13 7 8 14 10 3 4 9 5 18 14 11 9 7 5 4 2
36 33 37 36 31 29 30 31 43 28 37 5 4 3 4 1 10 16 15 9 9 7 4 6 12 8 16 11 8 12 10 9 7 8 12 8 6 11 9 6 11 10 12 12 9 5 6
34 34 34 35 32 30 30 31 36 21 26 3 4 1 2 3 7 7 7 10 10 11 10 18 12 13 11 14 6 11 10 11 7 9 10 6 3 5 4 2 6 2 8 10 8 8 7
31 32 34 35 34 29 29 28 31 14 26 6 4 3 2 4 6 8 11 13 16 13 15 6 15 14 3 2 4 12 9 8 7 1 8 8 3 2 3 2 1 2 3 4 11 8 9
30 30 32 33 35 30 29 27 28 27 23 13 7 4 2 2 5 9 13 3 1 3 7 11 3 2 3 4 3 4 2 4 5 5 7 11 4 1 2 3 5 4 2 0 5 6 6
29 28 31 33 33 30 28 26 29 21 18 18 11 11 2 1 3 4 6 4 7 3 2 5 0 4 5 2 2 3 3 3 3 3 5 2 6 3 4 1 2 2 1 5 4 2 6
28 27 29 32 32 31 28 24 26 26 21 19 7 18 3 2 4 4 3 2 3 1 1 3 4 2 4 3 4 3 4 7 6 6 5 5 4 5 2 2 5 3 4 3 4 3 4
27 27 29 31 31 31 27 24 25 22 20 21 6 18 8 2 3 1 0 2 2 2 2 3 4 2 2 3 2 2 3 6 5 7 7 6 7 4 3 2 6 6 4 3 3 2 2
25 26 28 30 28 27 25 23 22 21 20 22 3 17 21 1 2 2 5 5 6 1 1 3 3 9 4 3 2 2 2 3 5 4 7 6 5 5 7 5 2 3 3 2 4 4 5
Wind_Direction
298 288 291 292 286 284 280 288 282 275 268 263 265 264 268 275 281 284 289 293 296 295 277 260 249 222 166 213 238 215 113 45 251 209 219 230 239 242 244 247 239 239 243 238 237 252 269
296 291 291 284 287 283 279 275 280 280 263 260 265 264 260 261 267 269 274 274 275 279 277 257 242 224 248 238 247 238 231 230 292 269 213 234 243 249 271 245 253 256 243 261 266 245 231
289 288 287 284 282 274 279 276 272 277 268 254 259 262 259 258 260 266 270 270 265 269 271 266 246 210 240 233 257 254 229 246 274 273 279 214 251 279 280 264 299 242 270 242 247 247 235
286 282 280 280 278 272 275 270 268 265 264 253 253 259 257 255 258 264 266 270 254 256 259 252 246 232 247 247 248 249 242 245 256 251 255 271 297 280 272 313 317 272 225 249 240 240 241
279 282 277 275 273 273 270 267 264 262 257 254 247 252 255 253 255 259 264 273 261 250 254 251 233 231 255 258 225 225 217 221 229 237 240 244 252 258 269 255 271 237 232 222 243 239 226
297 278 274 275 272 273 270 267 266 260 257 252 249 249 248 249 248 249 242 257 268 244 230 230 258 254 246 226 218 222 225 226 246 269 270 220 225 236 219 213 223 221 222 235 219 226 226
310 284 270 272 271 271 268 268 262 257 256 252 248 242 240 246 240 234 217 258 160 224 216 198 198 229 104 239 155 202 210 210 226 242 234 228 211 223 220 218 235 261 247 230 237 215 232
322 324 265 269 268 266 262 262 256 254 252 243 245 225 234 237 234 230 208 214 214 87 269 223 253 222 249 299 218 212 192 198 208 221 219 235 229 228 229 235 228 236 249 257 232 228 218
321 321 318 291 270 262 259 254 251 249 248 238 230 215 225 221 228 215 209 219 243 293 255 206 223 236 228 213 231 207 194 201 205 217 215 218 237 234 240 236 240 228 241 243 233 237 234
320 314 314 321 294 266 259 251 248 245 242 234 219 206 204 194 200 214 219 235 244 213 273 216 216 235 217 162 249 236 209 205 222 228 217 236 248 239 231 232 235 239 230 247 250 234 198
323 311 304 299 326 296 264 250 244 239 233 224 212 199 191 187 133 163 162 202 181 108 277 123 164 170 206 184 30 212 208 209 225 222 209 224 228 234 230 237 223 245 219 241 245 262 192
324 316 315 294 300 309 282 249 239 234 221 211 203 192 184 197 234 140 146 142 113 127 248 163 134 180 175 198 211 315 188 207 227 239 238 243 249 240 239 228 247 255 213 285 236 222 208
330 321 309 297 289 310 319 255 238 229 212 202 196 187 183 172 193 176 150 128 139 232 103 180 186 183 211 199 215 217 190 204 203 206 210 226 249 238 124 242 231 218 183 236 232 195 212
331 330 315 307 291 311 308 272 238 224 208 197 194 183 188 191 156 156 146 147 227 244 207 119 186 204 214 206 210 215 210 211 223 234 325 220 238 210 176 200 226 206 190 224 183 190 139
333 331 324 316 287 308 305 268 232 222 201 195 190 177 173 191 167 155 153 208 237 244 179 179 165 209 199 195 229 207 207 208 216 209 219 241 221 159 181 214 201 182 198 237 280 176 106
333 332 330 327 309 286 315 288 232 216 194 188 159 152 182 187 168 157 201 231 230 247 143 189 213 198 188 184 198 202 212 224 219 226 194 191 296 170 200 221 200 207 167 207 225 195 145
333 335 333 327 317 314 306 329 244 220 188 178 146 155 198 179 164 176 219 226 256 240 180 192 230 205 225 179 204 199 215 240 192 197 145 168 239 314 199 189 185 197 199 229 244 180 126
335 339 334 329 323 311 310 315 278 197 184 163 142 173 151 158 180 192 220 209 237 249 209 233 261 267 216 194 201 201 244 226 180 155 183 168 275 236 259 195 197 195 206 213 250 41 50
334 339 337 335 340 323 314 329 275 196 183 146 147 132 161 166 194 206 227 231 221 277 207 206 247 245 250 213 197 206 228 219 159 150 166 168 208 252 331 173 145 214 227 283 298 326 173
330 337 338 336 340 339 317 329 206 189 182 161 152 165 138 202 251 213 216 224 221 220 243 241 264 249 235 236 203 260 232 231 161 173 152 158 218 242 273 139 140 185 211 270 228 344 9
332 334 336 337 347 339 345 345 240 192 183 160 187 200 162 178 215 230 196 240 216 239 215 194 252 245 242 218 209 235 228 232 169 186 160 257 257 271 285 139 152 164 190 239 267 233 59
331 333 336 338 341 340 336 339 335 193 183 156 138 185 154 218 201 210 226 222 228 217 255 226 225 228 231 217 198 202 190 228 177 185 183 212 294 309 73 56 156 163 181 197 223 236 261
330 328 334 337 337 342 341 321 334 198 174 144 156 308 62 209 198 196 213 225 226 213 237 246 264 228 260 226 258 235 194 211 166 168 178 173 269 323 45 60 62 360 195 194 206 213 213
329 326 332 334 337 341 341 324 333 210 198 130 150 116 150 247 246 229 231 220 216 226 230 241 223 194 247 88 77 79 24 46 35 137 177 180 195 294 331 72 121 199 10 223 203 207 213
328 326 328 332 335 338 336 327 316 335 214 188 156 137 184 251 285 275 279 134 57 267 222 221 228 71 8 16 143 98 82 23 12 13 349 181 174 316 116 268 310 139 27 44 179 236 213
326 325 327 330 332 334 333 326 329 331 214 200 181 167 132 98 247 347 332 78 282 217 231 169 6 355 87 253 149 147 154 125 190 287 345 131 116 41 349 215 241 87 27 324 49 314 330
324 323 325 329 330 333 334 328 311 313 216 200 189 194 133 201 262 313 307 129 279 224 87 125 141 115 63 229 184 164 160 156 165 172 161 161 129 182 232 314 315 127 140 313 114 244 328
322 324 326 327 330 332 332 323 309 334 209 203 200 195 172 205 264 146 59 187 236 236 179 175 100 210 149 200 131 232 157 191 149 157 169 166 169 176 127 188 270 142 67 159 173 72 60
319 321 321 326 325 328 330 316 308 326 219 204 164 192 202 225 322 281 261 231 214 247 324 183 270 164 171 140 199 240 220 134 147 171 179 175 200 167 187 202 206 106 86 131 120 128 93